Iowa City Municipal Airport
Tuesday 8:38 PM
Temperature67° (80°/47°)
Dew Point59°
Relative Humidity76
%
Visibility
3
mi
Pressure1004.7
mb
Wind DirectionW
260°
Wind Speed6
mph
Precipitation Today0.00"

Last 30 Observations

Time PresWx Temp DP Feels RH% Vsby Pressure Ceiling Direction Speed 1h Precip
8:11 PM TS 74° 58° 57
%
10
mi
1004.1
mb
🔺
6,000
ft
N
360°
7
mph
0.00"
8:01 PM 71° 59° 66
%
10
mi
1003.7
mb
N
350°
7
mph
0.00"
7:52 PM 72° 59° 64
%
10
mi
1003.4
mb
SW
220°
5
mph
0.00"
6:52 PM 77° 59° 54
%
10
mi
1003.1
mb
SW
230°
13
mph
0.00"
5:52 PM 79° 61° 54
%
10
mi
1003.4
mb
WSW
250°
11
mph
0.00"
4:52 PM 79° 61° 54
%
10
mi
1003.1
mb
WSW
240°
16
mph
(G28)
0.00"
3:52 PM 79° 61° 54
%
10
mi
1003.4
mb
SSW
210°
17
mph
(G28)
0.00"
2:52 PM 78° 61° 56
%
10
mi
1004.4
mb
SW
220°
16
mph
0.00"
1:52 PM 74° 61° 64
%
10
mi
1004.8
mb
SW
220°
10
mph
0.00"
1:30 PM 73° 60° 64
%
10
mi
1005.4
mb
S
190°
11
mph
0.00"
12:52 PM 73° 60° 64
%
10
mi
1006.1
mb
2,300
ft
S
190°
15
mph
0.00"
11:52 AM 70° 60° 71
%
10
mi
1006.8
mb
1,900
ft
SW
230°
13
mph
0.00"
10:52 AM 69° 59° 70
%
10
mi
1007.5
mb
1,600
ft
WSW
240°
7
mph
0.00"
10:25 AM 67° 59° 76
%
10
mi
1007.8
mb
1,500
ft
WSW
250°
11
mph
0.00"
9:52 AM 66° 59° 78
%
10
mi
1007.8
mb
1,400
ft
WSW
250°
8
mph
0.00"
9:14 AM 65° 59° 81
%
10
mi
1007.8
mb
1,400
ft
WSW
240°
7
mph
0.00"
8:52 AM 64° 58° 81
%
10
mi
1007.5
mb
SW
220°
11
mph
0.00"
7:52 AM 59° 56° 90
%
9
mi
1007.5
mb
S
180°
3
mph
0.00"
7:15 AM BR 53° 52° 96
%
3
mi
1007.5
mb
Calm 0.00"
7:10 AM BR 53° 52° 96
%
mi
1007.5
mb
S
170°
3
mph
0.00"
7:03 AM FG 52° 51° 97
%
¼
mi
1007.5
mb
Calm 0.00"
6:52 AM BR 52° 50° 93
%
mi
1007.5
mb
Calm 0.00"
5:52 AM FG 50° 48° 93
%
½
mi
1007.5
mb
SSE
150°
5
mph
0.00"
5:32 AM BR 50° 49° 96
%
¾
mi
1007.8
mb
SE
140°
3
mph
0.00"
5:23 AM BR 49°
mi
1007.8
mb
Calm 0.00"
5:08 AM BR 52° 50° 93
%
3
mi
1007.8
mb
Calm 0.00"
4:56 AM BR 52° 50° 93
%
mi
1008.1
mb
Calm 0.00"
4:52 AM BR 52° 50° 93
%
3
mi
1008.1
mb
Calm 0.00"
4:38 AM BR 54° 53° 97
%
3
mi
1008.5
mb
Calm 0.00"
4:22 AM BR 54° 53° 97
%
mi
1008.1
mb
Calm 0.00"